Date String (YYYY-MM-DD hh:mm:ss) UTC,Instrument flags,absolute air pressure of the measurement (hPa),sample flow rate (lpm),inlet stack bypass flow (lpm),air temperature of the measurement (°C),ambient temperature measured by the external sensor (°C),aerosol sample conditioner tube jacket temperature (°C),OPC LED temperature (°C),internal box temperature (°C),relative humidity of the measurement (%),span deviation,mass concentration of particles derived from Lorenz-Mie calculation of OPC scattering (μg/m³),mass concentration of particles derived from Lorenz-Mie calculation of OPC scattering (μg/m³),mass concentration of particles derived from Lorenz-Mie calculation of OPC scattering (μg/m³)
DateTimeUTC,F1_M11,P_M11,Q1_M11,Q2_M11,T1_M11,T2_M11,T3_M11,T4_M11,T5_M11,U1_M11,ZSPAN_M11,X2_M11,X0_M11,X1_M11
2024-04-23 14:00:00,SystemResetWarning,0832.6,5.00,000.00,025.5,024.8,000.0,033.9,027.3,011.0,0000.0,0002.61,0007.69,0001.31
2024-04-23 14:01:00,SystemResetWarning,0832.6,5.00,000.00,025.5,024.8,000.0,033.9,027.3,011.0,0000.0,0002.57,0007.65,0001.28
2024-04-23 14:02:00,SystemResetWarning,0832.7,5.00,000.00,025.5,024.8,000.0,033.9,027.3,010.7,0000.0,0002.56,0007.71,0001.28
2024-04-23 14:03:00,SystemResetWarning,0832.6,5.01,000.00,025.5,024.8,000.0,033.9,027.3,011.1,0000.0,0002.58,0007.73,0001.29
2024-04-23 14:04:00,SystemResetWarning,0832.6,5.01,000.00,025.5,024.8,000.0,033.9,027.3,010.7,0000.0,0002.60,0007.75,0001.29
2024-04-23 14:05:00,SystemResetWarning,0832.6,5.01,000.00,025.5,024.8,000.0,034.0,027.3,010.2,0000.0,0002.70,0007.97,0001.30
2024-04-23 14:06:00,SystemResetWarning,0832.6,4.99,000.00,025.5,024.8,000.0,034.0,027.3,009.9,0000.0,0002.69,0007.68,0001.30
2024-04-23 14:07:00,SystemResetWarning,0832.7,4.99,000.00,025.5,024.8,000.0,034.0,027.3,009.7,0000.0,0002.78,0007.93,0001.30
2024-04-23 14:08:00,SystemResetWarning,0832.6,5.00,000.00,025.5,024.8,000.0,034.0,027.3,009.5,0000.0,0002.89,0008.00,0001.29
2024-04-23 14:09:00,SystemResetWarning,0832.7,5.00,000.00,025.5,024.8,000.0,034.0,027.3,009.6,0000.0,0002.97,0007.32,0001.30
2024-04-23 14:10:00,SystemResetWarning,0832.6,5.01,000.00,025.5,024.8,000.0,034.0,027.3,009.6,0000.0,0002.95,0007.34,0001.29
2024-04-23 14:11:00,SystemResetWarning,0832.7,5.00,000.00,025.5,024.7,000.0,034.0,027.3,009.6,0000.0,0002.99,0007.67,0001.27
2024-04-23 14:12:00,SystemResetWarning,0832.6,5.01,000.00,025.5,024.7,000.0,034.0,027.3,009.9,0000.0,0003.00,0008.09,0001.27
2024-04-23 14:13:00,SystemResetWarning,0832.6,5.00,000.00,025.5,024.7,000.0,034.0,027.3,009.8,0000.0,0002.94,0008.53,0001.25
2024-04-23 14:14:00,SystemResetWarning,0832.6,5.00,000.00,025.5,024.7,000.0,034.0,027.3,009.6,0000.0,0002.93,0008.96,0001.25
2024-04-23 14:15:00,SystemResetWarning,0832.6,5.00,000.00,025.5,024.7,000.0,034.0,027.3,009.6,0000.0,0002.93,0009.16,0001.27
2024-04-23 14:16:00,SystemResetWarning,0832.6,5.00,000.00,025.5,024.8,000.0,034.0,027.3,009.8,0000.0,0002.86,0008.95,0001.28
2024-04-23 14:17:00,SystemResetWarning,0832.6,5.00,000.00,025.5,024.8,000.0,034.0,027.3,010.0,0000.0,0002.90,0008.96,0001.28
2024-04-23 14:18:00,SystemResetWarning,0832.5,4.99,000.00,025.5,024.8,000.0,034.0,027.4,010.1,0000.0,0002.78,0008.76,0001.28
2024-04-23 14:19:00,SystemResetWarning,0832.5,5.00,000.00,025.5,024.8,000.0,034.0,027.4,010.4,0000.0,0002.76,0009.19,0001.29
2024-04-23 14:20:00,SystemResetWarning,0832.5,5.00,000.00,025.5,024.8,000.0,034.0,027.4,010.2,0000.0,0002.66,0009.31,0001.30
2024-04-23 14:21:00,SystemResetWarning,0832.5,5.00,000.00,025.5,024.8,000.0,034.0,027.4,010.2,0000.0,0002.62,0009.25,0001.31
2024-04-23 14:22:00,SystemResetWarning,0832.5,5.01,000.00,025.5,024.8,000.0,034.0,027.4,010.1,0000.0,0002.59,0009.02,0001.32
2024-04-23 14:23:00,SystemResetWarning,0832.5,5.00,000.00,025.5,024.8,000.0,034.0,027.4,010.5,0000.0,0002.54,0008.98,0001.32
2024-04-23 14:24:00,SystemResetWarning,0832.5,5.00,000.00,025.5,024.8,000.0,034.0,027.4,010.4,0000.0,0002.55,0008.46,0001.32
2024-04-23 14:25:00,SystemResetWarning,0832.5,5.00,000.00,025.5,024.8,000.0,034.0,027.4,010.4,0000.0,0002.61,0008.27,0001.32
2024-04-23 14:26:00,SystemResetWarning,0832.5,4.99,000.00,025.6,024.9,000.0,034.0,027.4,010.3,0000.0,0002.60,0007.95,0001.31
2024-04-23 14:27:00,SystemResetWarning,0832.5,5.00,000.00,025.6,024.9,000.0,034.0,027.4,010.6,0000.0,0002.62,0008.01,0001.31
2024-04-23 14:28:00,SystemResetWarning,0832.5,5.01,000.00,025.6,024.9,000.0,034.0,027.4,010.9,0000.0,0002.62,0007.99,0001.30
2024-04-23 14:29:00,SystemResetWarning,0832.5,5.01,000.00,025.6,024.9,000.0,034.0,027.4,011.2,0000.0,0002.60,0008.40,0001.30
2024-04-23 14:30:00,SystemResetWarning,0832.5,4.99,000.00,025.6,024.9,000.0,034.0,027.4,010.6,0000.0,0002.58,0008.74,0001.30
2024-04-23 14:31:00,SystemResetWarning,0832.4,4.98,000.00,025.6,024.9,000.0,034.0,027.4,010.6,0000.0,0002.60,0008.86,0001.28
2024-04-23 14:32:00,SystemResetWarning,0832.4,5.00,000.00,025.6,024.9,000.0,034.0,027.4,011.1,0000.0,0002.63,0009.83,0001.28
2024-04-23 14:33:00,SystemResetWarning,0832.3,5.00,000.00,025.6,024.9,000.0,034.0,027.4,010.7,0000.0,0002.65,0010.12,0001.28
2024-04-23 14:34:00,SystemResetWarning,0832.3,5.00,000.00,025.6,024.9,000.0,034.1,027.4,010.6,0000.0,0002.64,0010.40,0001.27
2024-04-23 14:35:00,SystemResetWarning,0832.3,5.01,000.00,025.6,024.9,000.0,034.1,027.4,010.8,0000.0,0002.64,0010.69,0001.27
2024-04-23 14:36:00,SystemResetWarning,0832.3,5.00,000.00,025.6,024.9,000.0,034.1,027.4,010.6,0000.0,0002.56,0010.76,0001.27
2024-04-23 14:37:00,SystemResetWarning,0832.3,5.00,000.00,025.6,024.9,000.0,034.1,027.4,010.6,0000.0,0002.48,0010.57,0001.28
2024-04-23 14:38:00,SystemResetWarning,0832.3,5.01,000.00,025.6,024.8,000.0,034.1,027.4,010.6,0000.0,0002.46,0010.61,0001.28
2024-04-23 14:39:00,SystemResetWarning,0832.3,5.00,000.00,025.6,024.8,000.0,034.1,027.4,010.6,0000.0,0002.44,0010.62,0001.29
2024-04-23 14:40:00,SystemResetWarning,0832.3,5.00,000.00,025.6,024.8,000.0,034.1,027.4,010.8,0000.0,0002.46,0011.32,0001.29
2024-04-23 14:41:00,SystemResetWarning,0832.3,5.00,000.00,025.6,024.8,000.0,034.1,027.4,010.8,0000.0,0002.53,0011.21,0001.28
2024-04-23 14:42:00,SystemResetWarning,0832.3,5.00,000.00,025.6,024.7,000.0,034.1,027.3,010.8,0000.0,0002.54,0011.00,0001.29
2024-04-23 14:43:00,SystemResetWarning,0832.4,4.99,000.00,025.5,024.7,000.0,034.0,027.3,010.9,0000.0,0002.50,0010.24,0001.30
2024-04-23 14:44:00,SystemResetWarning,0832.4,4.99,000.00,025.5,024.7,000.0,034.1,027.3,011.0,0000.0,0002.45,0010.06,0001.29
2024-04-23 14:45:00,SystemResetWarning,0832.5,4.99,000.00,025.5,024.7,000.0,034.0,027.3,010.6,0000.0,0002.51,0010.06,0001.29
2024-04-23 14:46:00,SystemResetWarning,0832.5,5.00,000.00,025.5,024.7,000.0,034.0,027.3,010.6,0000.0,0002.52,0009.76,0001.30
2024-04-23 14:47:00,SystemResetWarning,0832.5,5.00,000.00,025.5,024.7,000.0,034.0,027.3,010.8,0000.0,0002.59,0009.45,0001.33
2024-04-23 14:48:00,SystemResetWarning,0832.6,5.01,000.00,025.5,024.7,000.0,034.1,027.3,011.0,0000.0,0002.68,0009.55,0001.32
2024-04-23 14:49:00,SystemResetWarning,0832.5,5.00,000.00,025.5,024.8,000.0,034.0,027.4,011.2,0000.0,0002.70,0009.57,0001.31
2024-04-23 14:50:00,SystemResetWarning,0832.5,5.00,000.00,025.6,024.8,000.0,034.0,027.4,011.4,0000.0,0002.65,0009.41,0001.32
2024-04-23 14:51:00,SystemResetWarning,0832.5,5.00,000.00,025.6,024.8,000.0,034.1,027.4,011.3,0000.0,0002.66,0008.85,0001.32
2024-04-23 14:52:00,SystemResetWarning,0832.5,5.00,000.00,025.6,024.8,000.0,034.1,027.4,010.9,0000.0,0002.60,0008.27,0001.32
2024-04-23 14:53:00,SystemResetWarning,0832.4,5.00,000.00,025.6,024.8,000.0,034.0,027.4,010.8,0000.0,0002.52,0007.52,0001.31
2024-04-23 14:54:00,SystemResetWarning,0832.3,4.99,000.00,025.6,024.8,000.0,034.0,027.4,011.0,0000.0,0002.56,0007.90,0001.31
2024-04-23 14:55:00,SystemResetWarning,0832.3,4.99,000.00,025.6,024.8,000.0,034.0,027.3,011.1,0000.0,0002.65,0008.04,0001.33
2024-04-23 14:56:00,SystemResetWarning,0832.3,5.00,000.00,025.5,024.7,000.0,034.0,027.4,011.0,0000.0,0002.71,0007.65,0001.35
2024-04-23 14:57:00,SystemResetWarning,0832.3,5.00,000.00,025.5,024.7,000.0,034.1,027.3,011.2,0000.0,0002.75,0008.28,0001.36
2024-04-23 14:58:00,SystemResetWarning,0832.2,5.00,000.00,025.5,024.8,000.0,034.1,027.4,011.0,0000.0,0002.67,0008.34,0001.33
2024-04-23 14:59:00,SystemResetWarning,0832.2,5.01,000.00,025.6,024.8,000.0,034.1,027.4,011.1,0000.0,0002.63,0008.55,0001.33
